Peoria, IL

10:16 AM CST on December 12, 2017 (GMT -0600)
Greater Peoria Regional

Weather History for KPIA - October, 2013

Change the Weather History Date:

Wednesday, October 30, 2013

  Actual Average Record
Temperature  
Mean Temperature 59 °F 49 °F  
Max Temperature 65 °F 59 °F 86 °F (1950)
Min Temperature 53 °F 40 °F 7 °F (1925)
Degree Days  
Heating Degree Days 6 16  
Month to date heating degree days 336 342  
Since 1 July heating degree days 368 432  
Cooling Degree Days 0 0  
Month to date cooling degree days 40 12  
Year to date cooling degree days 1174 1036  
Growing Degree Days 8 (Base 50)    
Moisture  
Dew Point 57 °F    
Average Humidity 97    
Maximum Humidity 100    
Minimum Humidity 93    
Precipitation  
Precipitation 1.19 in 0.10 in 1.19 in (2013)
Month to date precipitation 4.01 2.74  
Year to date precipitation 37.69 30.84  
Snow  
Snow 0.00 in 0.00 in T in ()
Month to date snowfall T 0.0  
Since 1 July snowfall T 0.0  
Since 1 September snowfall T 0.0  
Snow Depth 0.00 in    
Sea Level Pressure  
Sea Level Pressure 29.97 in    
Wind  
Wind Speed 8 mph (SE)    
Max Wind Speed 21 mph    
Max Gust Speed 27 mph    
Visibility 2 miles    
Events Fog , Rain , Thunderstorm    
T = Trace of Precipitation, MM = Missing Value Source: NWS Daily Summary

Daily Weather History Graph

Daily Weather History Graph

Search for Another Location

Airport or City:

Trip Planner

Search our weather history database for the weather conditions in past years. The results will help you decide how hot, cold, wet, or windy it might be!

Date:

Astronomy

Oct. 30, 2013 Rise Set
Actual Time 7:26 AM CDT 5:57 PM CDT
Civil Twilight 6:58 AM CDT 6:25 PM CDT
Nautical Twilight 6:26 AM CDT 6:57 PM CDT
Astronomical Twilight 5:54 AM CDT 7:29 PM CDT
Moon 3:14 AM CDT (10/30) 3:43 PM CDT (10/30)
Length of Visible Light 11h 26m
Length of Day
10h 30m
Waning Crescent, 17% of the Moon is Illuminated
Oct 30
Waning Crescent
Nov 3
New
Nov 9
First Quarter
Nov 17
Full
Nov 25
Last Quarter

Hourly Weather History & Observations

Time (CDT) Temp. Dew Point Humidity Pressure Visibility Wind Dir Wind Speed Gust Speed Precip Events Conditions
12:03 AM 53.1 °F 51.1 °F 93% 30.11 in 2.0 mi ESE 6.9 mph - N/A   Overcast
12:14 AM 53.1 °F 51.1 °F 93% 30.11 in 1.8 mi ESE 6.9 mph - N/A   Overcast
12:47 AM 53.1 °F 51.1 °F 93% 30.10 in 1.2 mi ESE 5.8 mph - N/A   Overcast
12:54 AM 53.1 °F 51.1 °F 93% 30.10 in 1.5 mi SE 4.6 mph - N/A   Overcast
1:36 AM 53.1 °F 51.1 °F 93% 30.09 in 2.0 mi SE 6.9 mph - N/A   Overcast
1:54 AM 53.1 °F 51.1 °F 93% 30.09 in 2.5 mi SE 6.9 mph - N/A   Overcast
2:13 AM 53.1 °F 51.1 °F 93% 30.08 in 3.0 mi SE 6.9 mph - N/A   Overcast
2:44 AM 53.1 °F 52.0 °F 96% 30.08 in 3.0 mi SSE 5.8 mph - N/A   Overcast
2:54 AM 53.1 °F 52.0 °F 96% 30.08 in 3.0 mi SSE 5.8 mph - N/A   Overcast
3:42 AM 54.0 °F 52.0 °F 93% 30.07 in 3.0 mi SE 6.9 mph - N/A   Overcast
3:54 AM 53.1 °F 52.0 °F 96% 30.07 in 3.0 mi SE 6.9 mph - N/A   Overcast
4:06 AM 53.1 °F 52.0 °F 96% 30.07 in 2.5 mi SE 5.8 mph - N/A   Overcast
4:45 AM 54.0 °F 52.0 °F 93% 30.07 in 3.0 mi SE 5.8 mph - N/A   Overcast
4:54 AM 54.0 °F 52.0 °F 93% 30.06 in 3.0 mi SE 5.8 mph - N/A   Overcast
5:09 AM 54.0 °F 52.0 °F 93% 30.06 in 2.5 mi SE 6.9 mph - N/A   Overcast
5:29 AM 53.1 °F 52.0 °F 96% 30.06 in 1.5 mi SE 5.8 mph - N/A   Overcast
5:40 AM 54.0 °F 52.0 °F 93% 30.06 in 1.2 mi ESE 4.6 mph - N/A   Overcast
5:54 AM 54.0 °F 52.0 °F 93% 30.06 in 0.8 mi SE 5.8 mph - N/A   Overcast
6:54 AM 53.1 °F 53.1 °F 100% 30.07 in 0.5 mi South 5.8 mph - N/A Fog Fog
7:30 AM 53.1 °F 52.0 °F 96% 30.06 in 0.2 mi SSE 5.8 mph - N/A Fog Fog
7:54 AM 53.1 °F 53.1 °F 100% 30.06 in 0.2 mi SE 4.6 mph - N/A Fog Fog
8:54 AM 54.0 °F 53.1 °F 97% 30.07 in 0.2 mi SSE 6.9 mph - N/A Fog Fog
9:54 AM 55.0 °F 54.0 °F 96% 30.06 in 0.8 mi SSE 4.6 mph - N/A   Overcast
10:21 AM 55.9 °F 55.0 °F 97% 30.05 in 1.0 mi South 6.9 mph - N/A   Overcast
10:40 AM 55.9 °F 55.0 °F 97% 30.05 in 0.5 mi South 3.5 mph - N/A Fog Fog
10:54 AM 55.9 °F 55.0 °F 97% 30.04 in 0.2 mi SSE 4.6 mph - N/A Fog Fog
11:07 AM 57.0 °F 55.9 °F 96% 30.03 in 0.5 mi SSE 3.5 mph - N/A Fog Fog
11:54 AM 57.9 °F 55.9 °F 93% 30.01 in 0.5 mi SSE 5.8 mph - 0.00 in Fog , Rain Light Rain
12:54 PM 59.0 °F 57.0 °F 93% 29.96 in 0.5 mi South 16.1 mph - 0.01 in Fog , Rain Light Rain
1:03 PM 59.0 °F 57.9 °F 96% 29.96 in 0.2 mi South 16.1 mph - 0.00 in Fog , Rain Light Rain
1:34 PM 60.1 °F 59.0 °F 96% 29.95 in 0.8 mi South 6.9 mph - 0.02 in Rain Light Rain
1:54 PM 60.1 °F 59.0 °F 96% 29.93 in 0.5 mi SSE 6.9 mph - 0.02 in Fog , Rain Light Rain
2:06 PM 60.1 °F 59.0 °F 96% 29.92 in 1.2 mi SSE 8.1 mph - 0.00 in Rain Light Rain
2:54 PM 61.0 °F 60.1 °F 97% 29.91 in 1.2 mi SSE 6.9 mph - 0.01 in Rain Light Rain
3:02 PM 62.1 °F 60.1 °F 93% 29.91 in 1.5 mi South 6.9 mph - 0.00 in Rain Light Rain
3:29 PM 62.1 °F 60.1 °F 93% 29.90 in 1.2 mi SE 6.9 mph - 0.00 in Rain Light Rain
3:54 PM 62.1 °F 60.1 °F 93% 29.89 in 1.0 mi ENE 4.6 mph - 0.02 in Rain Light Rain
4:04 PM 62.1 °F 60.1 °F 93% 29.89 in 0.8 mi East 6.9 mph - 0.06 in Rain Heavy Rain
4:32 PM 62.1 °F 61.0 °F 96% 29.90 in 1.0 mi East 4.6 mph - 0.20 in Rain , Thunderstorm Heavy Thunderstorms and Rain
4:54 PM 62.1 °F 61.0 °F 96% 29.91 in 1.0 mi SSE 5.8 mph - 0.29 in Rain , Thunderstorm Heavy Thunderstorms and Rain
5:01 PM 62.1 °F 61.0 °F 96% 29.90 in 0.5 mi SSE 4.6 mph - 0.12 in Fog , Rain , Thunderstorm Heavy Thunderstorms and Rain
5:12 PM 62.1 °F 61.0 °F 96% 29.90 in 0.5 mi Calm Calm - 0.29 in Fog , Rain , Thunderstorm Heavy Thunderstorms and Rain
5:39 PM 62.1 °F 60.1 °F 93% 29.89 in 1.2 mi Variable 4.6 mph - 0.42 in Rain , Thunderstorm Heavy Thunderstorms and Rain
5:47 PM 62.1 °F 61.0 °F 96% 29.88 in 1.5 mi NE 6.9 mph - 0.46 in Rain , Thunderstorm Heavy Thunderstorms and Rain
5:54 PM 62.1 °F 60.1 °F 93% 29.88 in 3.0 mi ENE 6.9 mph - 0.46 in Rain , Thunderstorm Heavy Thunderstorms and Rain
6:13 PM 62.1 °F 60.1 °F 93% 29.88 in 1.8 mi East 8.1 mph - 0.05 in Rain , Thunderstorm Heavy Thunderstorms and Rain
6:24 PM 62.1 °F 60.1 °F 93% 29.87 in 2.0 mi NE 4.6 mph - 0.23 in Rain , Thunderstorm Heavy Thunderstorms and Rain
6:29 PM 62.1 °F 60.1 °F 93% 29.87 in 3.0 mi East 6.9 mph - 0.24 in Rain , Thunderstorm Heavy Thunderstorms and Rain
6:43 PM 62.1 °F 60.1 °F 93% 29.88 in 4.0 mi ENE 5.8 mph - 0.25 in Rain , Thunderstorm Heavy Thunderstorms and Rain
6:51 PM 60.8 °F 60.8 °F 100% 29.88 in 5.0 mi ENE 6.9 mph - 0.25 in   Overcast
6:54 PM 61.0 °F 60.1 °F 97% 29.88 in 5.0 mi ENE 5.8 mph - 0.25 in   Overcast
7:51 PM 60.8 °F 60.8 °F 100% 29.86 in 7.0 mi ESE 5.8 mph - 0.01 in   Overcast
7:54 PM 61.0 °F 60.1 °F 97% 29.86 in 7.0 mi East 4.6 mph - 0.01 in   Overcast
8:54 PM 64.9 °F 63.0 °F 93% 29.83 in 7.0 mi SSW 11.5 mph - 0.04 in   Overcast
9:34 PM 64.9 °F 63.0 °F 93% 29.82 in 5.0 mi SSW 13.8 mph - 0.01 in   Overcast
9:54 PM 64.9 °F 63.0 °F 93% 29.82 in 4.0 mi SSW 11.5 mph - 0.01 in   Overcast
10:54 PM 64.9 °F 62.1 °F 90% 29.81 in 7.0 mi SSW 13.8 mph - 0.00 in Rain Light Rain
11:30 PM 64.9 °F 62.1 °F 90% 29.80 in 6.0 mi SSW 12.7 mph - 0.00 in Rain Light Rain
11:54 PM 64.9 °F 62.1 °F 90% 29.78 in 7.0 mi SSW 16.1 mph - 0.01 in   Overcast